Header for Extended Forecast Station List Page

Search by: ID | Name | Date | Parm | Value | Avg | % Avg
Sort by: ID | Name | Date | Parm | Value | Avg | % Avg

Enter search or view all records.

Click on id for station plot
#IDNameDateParmValueAvg% Avg
0BULO3BULLY CREEK-BULLY CREEK DAM02-20-2024INFLOW (KAF)344767
1MYKO3MCKAY CREEK-NEAR PILOT ROCK02-20-2024DISCHARGE (KAF)343888
2RIDI1WILLOW CREEK-RIRIE DAM02-20-2024INFLOW (KAF)7939201
3LWRI1LITTLE WOOD-LITTLE WOOD DAM02-20-2024INFLOW (KAF)5951115
4BERO3MALHEUR-AGENCY VALLEY DAM02-20-2024INFLOW (KAF)7852150
5MILI1SNAKE-AT MILNER02-20-2024DISCHARGE (KAF)M55M
6MACI1BIG LOST-MACKAY RESERVOIR NEAR MACKAY02-20-2024INFLOW (KAF)10066151
7PIHI1PORTNEUF-AT POCATELLO02-20-2024DISCHARGE (KAF)13373181
8DLGM8CLARK FORK-AT DEER LODGE02-20-2024DISCHARGE (KAF)687590
9WRMO3MALHEUR-WARM SPRINGS DAM02-20-2024INFLOW (KAF)12779161
10GIBO3UMATILLA-NEAR GIBBON02-20-2024DISCHARGE (KAF)9188104
11HWRI1BIG LOST-AT HOWELL RANCH NEAR CHILLY02-20-2024DISCHARGE (KAF)11591127
12BUDW1BUMPING-BUMPING LAKE DAM02-20-2024INFLOW (KAF)10294109
13KADW1KACHESS-KACHESS DAM02-20-2024INFLOW (KAF)969998
14EASW1YAKIMA-AT EASTON02-20-2024DISCHARGE (KAF)939994
15DEDI1DEADWOOD-NEAR LOWMAN02-20-2024INFLOW (KAF)8910188
16KEDW1YAKIMA-KEECHELUS LAKE02-20-2024INFLOW (KAF)110106104
17TNAW1TEANAWAY-BELOW FORKS02-20-2024DISCHARGE (KAF)146134109
18SATI1ST MARIES-NEAR SANTA02-20-2024DISCHARGE (KAF)145137106
19ARDW1ENTIAT-NEAR ARDENVOIR02-20-2024DISCHARGE (KAF)13314294
20HOTI1BRUNEAU-NEAR HOT SPRINGS02-20-2024DISCHARGE (KAF)234145161
21HALI1BIG WOOD-AT HAILEY02-20-2024DISCHARGE (KAF)167153109
22MAGI1BIG WOOD-MAGIC DAM02-20-2024INFLOW (KAF)188154123
23RILW1TIETON-RIMROCK LAKE NEAR RIMROCK02-20-2024INFLOW (KAF)15015597
24IPDI1HENRYS FORK-ISLAND PARK DAM02-20-2024INFLOW (KAF)15616396
25UMAO3UMATILLA-NEAR UMATILLA02-20-2024DISCHARGE (KAF)170168101
26PDTO3UMATILLA-AT PENDLETON02-20-2024DISCHARGE (KAF)205189108
27RCCM8ROCK CREEK-NEAR CLINTON02-20-2024DISCHARGE (KAF)14719376
28TCHW1WALLA WALLA-NEAR TOUCHET02-20-2024DISCHARGE (KAF)17320485
29BIGI1BOISE-AT GLENWOOD BRIDGE02-20-2024DISCHARGE (KAF)466208224
30DRMM8CLARK FORK-NR DRUMMOND02-20-2024DISCHARGE (KAF)18721488
31STRM8ST. REGIS-NEAR ST. REGIS02-20-2024DISCHARGE (KAF)20523787
32PARI1BOISE-NEAR PARMA02-20-2024DISCHARGE (KAF)495255194
33HODO3HOOD-NEAR TUCKER BRIDGE02-20-2024DISCHARGE (KAF)320255126
34OWYO3OWYHEE-OWYHEE DAM02-20-2024INFLOW (KAF)559268209
35TEAI1TETON-NEAR ST. ANTHONY02-20-2024DISCHARGE (KAF)312269116
36CHEI1FALL RIVER-NEAR CHESTER02-20-2024DISCHARGE (KAF)323295109
37CLUW1CLE ELUM-CLE ELUM LAKE02-20-2024INFLOW (KAF)321312103
38CLFW1NACHES-NEAR CLIFFDEL02-20-2024DISCHARGE (KAF)334329102
39UNDW1WHITE SALMON-NEAR UNDERWOOD02-20-2024DISCHARGE (KAF)363339107
40ARAI1SF BOISE-ANDERSON RANCH DAM02-20-2024INFLOW (KAF)439373118
41WSRI1WEISER-NEAR WEISER02-20-2024DISCHARGE (KAF)439417105
42CSDI1NF PAYETTE-CASCADE DAM02-20-2024INFLOW (KAF)36643784
43NACW1NACHES-NEAR NACHES02-20-2024DISCHARGE (KAF)486487100
44PITW1KLICKITAT-NEAR PITT02-20-2024DISCHARGE (KAF)602504119
45JLKW4SNAKE-JACKSON LAKE AT DAM02-20-2024INFLOW (KAF)563563100
46ANTI1HENRYS FORK-AT ST. ANTHONY02-20-2024DISCHARGE (KAF)610586104
47MONO3NF JOHN DAY-AT MONUMENT02-20-2024DISCHARGE (KAF)735604122
48BONM8BLACKFOOT-NEAR BONNER02-20-2024DISCHARGE (KAF)39461664
49UMTW1YAKIMA-AT UMTANUM02-20-2024DISCHARGE (KAF)60163495
50PATW1METHOW-NEAR PATEROS02-20-2024DISCHARGE (KAF)53766780
51REXI1HENRYS FORK-AT REXBURG02-20-2024DISCHARGE (KAF)745682109
52PRTI1PRIEST-NEAR PRIEST RIVER02-20-2024DISCHARGE (KAF)816717114
53PARW1YAKIMA-NEAR PARKER02-20-2024DISCHARGE (KAF)58372081
54CHDW1CHELAN-LAKE CHELAN DAM02-20-2024INFLOW (KAF)56173377
55SERO3JOHN DAY-AT SERVICE CK02-20-2024DISCHARGE (KAF)1117860130
56LUCI1BOISE-LUCKY PEAK DAM02-20-2024INFLOW (KAF)1093898122
57BITM8BITTERROOT-NEAR MISSOULA02-20-2024DISCHARGE (KAF)72190580
58JKSW4SNAKE-NEAR JACKSON02-20-2024DISCHARGE (KAF)917102789
59KIOW1YAKIMA-AT KIONA02-20-2024DISCHARGE (KAF)905105586
60BFTI1SNAKE-NEAR BLACKFOOT02-20-2024DISCHARGE (KAF)16101069151
61PESW1WENATCHEE-AT PESHASTIN02-20-2024DISCHARGE (KAF)966107390
62SNAI1SNAKE-AT BLACKFOOT02-20-2024DISCHARGE (KAF)16431075153
63EMMI1PAYETTE-NEAR EMMETT02-20-2024DISCHARGE (KAF)900107784
64ABOM8CLARK FORK-ABOVE MISSOULA02-20-2024DISCHARGE (KAF)757107870
65WGCM8MF FLATHEAD-NEAR WEST GLACIER02-20-2024DISCHARGE (KAF)920112782
66FCFM8NF FLATHEAD-NEAR COLUMBIA FALLS02-20-2024DISCHARGE (KAF)887117675
67TONW1OKANOGAN-NEAR TONASKET02-20-2024DISCHARGE (KAF)844121669
68TRYO3GRANDE RONDE-TROY02-20-2024DISCHARGE (KAF)13791286107
69ALPW4SNAKE-NEAR ALPINE02-20-2024DISCHARGE (KAF)1170132588
70MODO3DESCHUTES-AT MOODY NR BIGGS02-20-2024DISCHARGE (KAF)15381421108
71SHYI1SNAKE-NEAR SHELLEY02-20-2024DISCHARGE (KAF)19401487130
72HHWM8SF FLATHEAD-HUNGRY HORSE DAM02-20-2024INFLOW (KAF)1312151786
73LAUW1KETTLE-AT LAURIER02-20-2024DISCHARGE (KAF)15391525101
74SIFI1SNAKE-AB EAGLE ROCK NR IDAHO FALLS02-20-2024DISCHARGE (KAF)20651581131
75AFRI1SNAKE-AMERICAN FALLS RESERVOIR02-20-2024INFLOW (KAF)22871714133
76HEII1SNAKE-NEAR HEISE02-20-2024DISCHARGE (KAF)20261791113
77SWAI1SNAKE-BELOW SWAN FALLS02-20-2024DISCHARGE (KAF)19221893102
78PLDI1SF SNAKE-PALISADES DAM02-20-2024INFLOW (KAF)1960198199
79BELM8CLARK FORK-BELOW MISSOULA02-20-2024DISCHARGE (KAF)1478202473
80DWRI1NF CLEARWATER-DWORSHAK DAM02-20-2024INFLOW (KAF)2094240987
81COEI1COEUR D ALENE-COEUR D ALENE LAKE02-20-2024INFLOW (KAF)2297262987
82SPOW1SPOKANE-AT SPOKANE02-20-2024DISCHARGE (KAF)2196265183
83SRGM8CLARK FORK-AT ST REGIS02-20-2024DISCHARGE (KAF)1968269073
84LLKW1SPOKANE-AT LONGLAKE02-20-2024INFLOW (KAF)2496297984
85CFMM8FLATHEAD-AT COLUMBIA FALLS02-20-2024DISCHARGE (KAF)2601328579
86LEOI1KOOTENAI-AT LEONIA02-20-2024DISCHARGE (KAF)3168335894
87LYDM8KOOTENAI-LIBBY DAM02-20-2024INFLOW (KAF)2910366379
88ORFI1CLEARWATER-AT OROFINO02-20-2024DISCHARGE (KAF)3555397489
89WEII1SNAKE-AT WEISER02-20-2024DISCHARGE (KAF)42964001107
90KERM8FLATHEAD-SELI’Š KSANKA QLISPE’ DAM02-20-2024INFLOW (KAF)3166409177
91WHBI1SALMON-AT WHITEBIRD02-20-2024DISCHARGE (KAF)3638445482
92BRNI1SNAKE-BROWNLEE DAM02-20-2024INFLOW (KAF)48724479109
93SPDI1CLEARWATER-AT SPALDING02-20-2024DISCHARGE (KAF)4716583481
94NOXM8CLARK FORK-NOXON RAPIDS DAM02-20-2024INFLOW (KAF)4708671370
95CABI1CLARK FORK-CABINET GORGE DAM02-20-2024INFLOW (KAF)5212752069
96ALFW1PEND OREILLE-ALBENI FALLS DAM02-20-2024INFLOW (KAF)6773880577
97ANAW1SNAKE-NEAR ANATONE02-20-2024DISCHARGE (KAF)98541148786
98LGDW1SNAKE-LOWER GRANITE DAM02-20-2024INFLOW (KAF)145661782882
99LGSW1SNAKE-LITTLE GOOSE DAM02-20-2024INFLOW (KAF)145661786282
100LMNW1SNAKE-LOWER MONUMENTAL DAM02-20-2024INFLOW (KAF)146881800982
101IHDW1SNAKE-ICE HARBOR DAM02-20-2024INFLOW (KAF)146891801482
102CIBW1COLUMBIA-AT INTL BOUNDARY02-20-2024DISCHARGE (KAF)168382406370
103CHJW1COLUMBIA-CHIEF JOSEPH DAM02-20-2024INFLOW (KAF)199852768672
104GCDW1COLUMBIA-GRAND COULEE DAM02-20-2024INFLOW (KAF)210012770376
105WELW1COLUMBIA-WELLS DAM02-20-2024INFLOW (KAF)213562975872
106RRHW1COLUMBIA-ROCKY REACH DAM02-20-2024INFLOW (KAF)218333048072
107WANW1COLUMBIA-WANAPUM DAM02-20-2024INFLOW (KAF)227833179872
108PRWW1COLUMBIA-PRIEST RAPIDS DAM02-20-2024INFLOW (KAF)227893186372
109MCDW1COLUMBIA-MCNARY DAM02-20-2024INFLOW (KAF)384335105475
110JDAO3COLUMBIA-JOHN DAY DAM02-20-2024INFLOW (KAF)410285307677
111TDAO3COLUMBIA-THE DALLES DAM02-20-2024INFLOW (KAF)415145350078
112BONO3COLUMBIA-BONNEVILLE DAM02-20-2024INFLOW (KAF)428075562477
113BFEI1KOOTENAI-AT BONNERS FERRY02-20-2024STAGE (FT)MMM
114HOPI1PEND OREILLE-LAKE PEND OREILLE NR HOPE02-20-2024LAKE ELEVATION (FT)MMM
115SJMI1ST JOE-AT ST MARIES02-20-2024STAGE (FT)MMM